User: anonymous   Login
Location: Unspecified
(0.0000°N, 0.0000°E)
Time: 15:23:30
(UTC+01:00)
Language:

Cosmos 1538 Rocket - Orbit

View from above orbital plane
View from above orbital plane
View from above satellite
View from above satellite

Ground track
Ground track

The orbit data is extracted from the following two-line orbital elements,

1 14760U 84019B   14351.17416582  .00000171  00000-0  68045-4 0  4911
2 14760 074.0443 356.4899 0026659 079.3826 348.9452 14.35596842612550
Epoch (UTC): 17 December 2014 04:10:47
Eccentricity: 0.0026659
inclination: 74.0443°
perigee height: 754 km
apogee height: 792 km
right ascension of ascending node: 356.4899°
argument of perigee: 79.3826°
revolutions per day: 14.35596842
mean anomaly at epoch: 348.9452°
orbit number at epoch: 61255

The dashed part of the orbit path shows where the satellite is in the earth's shadow,  

DLR